Weather History for Walla Walla, WA

Change the Weather History Date:

Wednesday, June 25, 2014

  Actual Average Record
Temperature  
Mean Temperature 71 °F -  
Max Temperature 82 °F 84 °F 101 °F (1992)
Min Temperature 60 °F 57 °F 42 °F (1976)
Cooling Degree Days 6    
Growing Degree Days 21 (Base 50)    
Moisture  
Dew Point 49 °F    
Average Humidity 47    
Maximum Humidity 69    
Minimum Humidity 26    
Precipitation  
Precipitation 0.00 in - - ()
Sea Level Pressure  
Sea Level Pressure 29.87 in    
Wind  
Wind Speed 7 mph (SSW)    
Max Wind Speed 12 mph    
Max Gust Speed -    
Visibility 10 miles    
Events      
Averages and records for this station are not official NWS values.
T = Trace of Precipitation, MM = Missing Value Source: NWS Daily Summary

Daily Weather History Graph

Daily Weather History Graph

Search for Another Location

Airport:

Trip Planner

Search our weather history database for the weather conditions in past years. The results will help you decide how hot, cold, wet, or windy it might be!

Date:

Astronomy

Jun. 25, 2014 Rise Set
Actual Time 5:03 AM PDT 8:48 PM PDT
Civil Twilight 4:24 AM PDT 9:27 PM PDT
Nautical Twilight 3:32 AM PDT 10:19 PM PDT
Astronomical Twilight 2:19 AM PDT 11:32 PM PDT
Moon 4:03 AM PDT (6/25) 7:19 PM PDT (6/25)
Length of Visible Light 17h 02m
Length of Day
15h 45m
Waning Crescent, 2% of the Moon is Illuminated
Jun 25
Waning Crescent
Jun 27
New
Jul 5
First Quarter
Jul 12
Full
Jul 18
Last Quarter

Hourly Weather History & Observations

Time (PDT) Temp. Dew Point Humidity Pressure Visibility Wind Dir Wind Speed Gust Speed Precip Events Conditions
12:53 AM 66.0 °F 48.0 °F 52% 29.95 in 10.0 mi SSE 9.2 mph - N/A   Clear
1:53 AM 64.0 °F 51.1 °F 63% 29.95 in 10.0 mi SSW 8.1 mph - N/A   Clear
2:53 AM 64.0 °F 50.0 °F 60% 29.95 in 10.0 mi SE 8.1 mph - N/A   Clear
3:53 AM 63.0 °F 50.0 °F 63% 29.95 in 10.0 mi South 3.5 mph - N/A   Clear
4:53 AM 62.1 °F 50.0 °F 65% 29.95 in 10.0 mi SSE 4.6 mph - N/A   Partly Cloudy
5:53 AM 60.1 °F 50.0 °F 69% 29.96 in 10.0 mi SE 4.6 mph - N/A   Partly Cloudy
6:53 AM 64.0 °F 50.0 °F 60% 29.96 in 10.0 mi SSW 8.1 mph - N/A   Clear
7:53 AM 68.0 °F 51.1 °F 55% 29.96 in 10.0 mi SW 5.8 mph - N/A   Clear
8:53 AM 70.0 °F 48.0 °F 46% 29.95 in 10.0 mi SW 5.8 mph - N/A   Clear
9:53 AM 72.0 °F 48.0 °F 43% 29.94 in 10.0 mi WSW 6.9 mph - N/A   Clear
10:53 AM 73.9 °F 46.9 °F 38% 29.91 in 10.0 mi West 6.9 mph - N/A   Clear
11:53 AM 75.0 °F 46.9 °F 37% 29.89 in 10.0 mi Variable 3.5 mph - N/A   Clear
1:53 PM 78.1 °F 46.0 °F 32% 29.85 in 10.0 mi NNW 3.5 mph - N/A   Clear
2:53 PM 81.0 °F 45.0 °F 28% 29.83 in 10.0 mi North - - N/A   Clear
3:53 PM 82.0 °F 44.1 °F 26% 29.80 in 10.0 mi Variable 3.5 mph - N/A   Clear
4:53 PM 80.1 °F 45.0 °F 29% 29.78 in 10.0 mi NW 3.5 mph - N/A   Clear
5:53 PM 80.1 °F 48.0 °F 32% 29.77 in 10.0 mi SW 6.9 mph - N/A   Partly Cloudy
7:53 PM 73.9 °F 50.0 °F 43% 29.77 in 10.0 mi South 11.5 mph - N/A   Overcast
8:53 PM 73.0 °F 50.0 °F 44% 29.75 in 10.0 mi South 8.1 mph - N/A   Overcast
9:53 PM 72.0 °F 50.0 °F 46% 29.75 in 10.0 mi South 5.8 mph - N/A   Overcast
10:53 PM 70.0 °F 52.0 °F 53% 29.75 in 10.0 mi SSE 6.9 mph - N/A   Overcast